Regional Weather Roundup
Issued by NWS

Home | Current Version | Previous Version | Text Only | Print | Product List | Glossary On
Versions: 1 2 3 4 5 6 7 8 9 10 11 12 13 14 15 16 17 18 19 20 21 22 23 24 25 26 27 28 29 30 31 32 33 34 35 36 37 38 39 40 41 42 43 44 45 46 47 48 49 50
000
ASHW40 PHFO 080543
RWRHI

WEATHER ROUNDUP FOR HAWAII
NATIONAL WEATHER SERVICE HONOLULU HI
700 PM HST WED DEC 07 2016

THIS IS AN AUTOMATED REPORT THAT HAS NOT BEEN QUALITY CONTROLLED.

NOTE..."FAIR" INDICATES FEW OR NO CLOUDS BELOW 12,000 FEET WITH NO
SIGNIFICANT WEATHER AND/OR OBSTRUCTIONS TO VISIBILITY.

* - THESE SITES REPORT LIMITED FIELDS

HIZ001>004-080600-
KAUAI-NIIHAU-

CITY           SKY/WX    TMP DP  RH WIND       PRES   REMARKS
LIHUE APT      CLOUDY    76  70  82 E7        29.93R
PORT ALLEN*      N/A     75 N/A N/A E13         N/A
POIPU*           N/A     75 N/A N/A E5G10       N/A
PRINCEVILLE*     N/A     73 N/A N/A SE7         N/A
KOKOLE POINT*  NOT AVBL
MOLOAA DAIRY*    N/A     73  70  88 SE3         N/A
WAIMEA HTS*      N/A     73  68  83 NE3G12      N/A
PUU OPAE*      NOT AVBL
PUU LUA*       NOT AVBL
MAKAHA RIDGE*    N/A     68  63  83 CALM        N/A
$$

HIZ005>011-080600-
OAHU-

CITY           SKY/WX    TMP DP  RH WIND       PRES   REMARKS
HONOLULU       CLOUDY    76  67  73 NE3       29.91F
KALAELOA       CLOUDY    76  68  76 CALM      29.93S
KANEOHE MCB    NOT AVBL
WHEELER FIELD  PTCLDY    73  69  87 CALM      29.94S
BELLOWS*         N/A    N/A N/A N/A NE9         N/A
KAHUKU*          N/A    N/A N/A N/A E3          N/A
WHEELER*         N/A    N/A N/A N/A NE1         N/A
WAIANAE HARBOR   N/A    N/A N/A N/A NE1         N/A
DILLINGHAM*      N/A     72  66  83 MISG        N/A
KAHUKU TRN*      N/A     79  77  94 NW2         N/A
KAWAILOA*        N/A     72  64  78 E5G16       N/A
KII*             N/A     75  72  88 E9          N/A
MAKUA RANGE*     N/A     81  77  89 NW2         N/A
OAHU FOREST NW   N/A     70 N/A N/A E13         N/A
SCHOFIELD BRK*   N/A     70  68  94 MISG        N/A
SCHOFIELD S*   NOT AVBL
WAIANAE VLY*   NOT AVBL
KUAOKALA*        N/A     72  66  83 CALM        N/A
HONOULIUULI*   NOT AVBL
MOKUOLOE IS*   NOT AVBL
PALEHUA*         N/A     66  64  94 NE8         N/A
WAIAWA PHB*    NOT AVBL
$$

HIZ012>013-080600-
MOLOKAI-

CITY           SKY/WX    TMP DP  RH WIND       PRES   REMARKS
MOLOKAI AIRPT    N/A     76  70  82 NE7       29.94R
KALAUPAPA      NOT AVBL
MAKAPULAPAI*     N/A     75  72  88 E12         N/A
MOLOKAI 1*     NOT AVBL
PUU ALII*        N/A     62  62 100 NE1         N/A
$$

HIZ016-080600-
KAHOOLAWE-

CITY           SKY/WX    TMP DP  RH WIND       PRES   REMARKS
KAHOOLAWE*     NOT AVBL
HAKIOAWA*        N/A     73  72  95 MISG      30.36R
HONOKANAIA*      N/A     79  71  75 NE3G13    29.85R
KANELOA*         N/A     73  70  88 NE13G20   29.98R
KEALIALALO*    NOT AVBL
LUA MAKIKA*    NOT AVBL
$$

HIZ014>015-080600-
LANAI-

CITY           SKY/WX    TMP DP  RH WIND       PRES   REMARKS
LANAI CITY     CLOUDY    71  67  87 NE13      29.99R
LANAI 1*       NOT AVBL
$$

HIZ017>028-080600-
MAUI-

CITY           SKY/WX    TMP DP  RH WIND       PRES   REMARKS
KAHULUI        PTCLDY    77  70  79 NE8       29.92R
KAPALUA-W MAUI NOT AVBL
HANA AIRPORT     N/A     73  72  94 SE2       29.98S
HANA*            N/A     73 N/A N/A S2          N/A
HALEAKALA SUMM   N/A     43  34  70 S7          N/A
MAALAEA BAY*     N/A     79 N/A N/A NE5G13      N/A
HALEAKALA*     NOT AVBL
KAUPO GAP*       N/A     72  72 100 W3          N/A
KULA 1*          N/A     54  49  82 SE3         N/A
$$

HIZ023>026-080600-
BIG ISLAND OF HAWAII COAST AND LOWER SLOPES-

CITY           SKY/WX    TMP DP  RH WIND       PRES   REMARKS
KAILUA KONA    CLOUDY   N/A N/A N/A S12       29.91R
HILO           MOCLDY    75  70  84 S3        29.94R
HONOKAA*         N/A     70 N/A N/A VRB1        N/A
KAWAIHAE MWT*    N/A     79 N/A N/A NW6         N/A
KAWAIHAE*        N/A     79 N/A N/A W9        29.93R
SOUTH POINT*     N/A     70 N/A N/A N14G20      N/A
UPOLU AIRPORT* NOT AVBL
KAMUELA*       CLOUDY    66  64  94 W5        30.05S
HAKALAU*         N/A     56  55  97 S5G10       N/A
KALOKO-HONOKO*   N/A     79  72  78 S3G9      29.91
PALI 2*          N/A     64  64 100 W8          N/A
KEALAKOMO*       N/A     75  70  83 NE6         N/A
KAUPULEHU*       N/A     75  68  78 E5          N/A
KAPAPALA*      NOT AVBL
LOWER KAHUKU*    N/A     63  63 100 N3G10       N/A
PUHE CS*         N/A     79  70  73 NW3         N/A
PUHO CS*         N/A     77  69  76 NW1         N/A
PTA KEAMUKU*     N/A     64  61  88 CALM        N/A
WAIKOLOA*        N/A     73  70  88 NE3         N/A
$$

HIZ027>028-080600-
BIG ISLAND OF HAWAII INTERIOR AND SUMMMITS-

CITY           SKY/WX    TMP DP  RH WIND       PRES   REMARKS
BRADSHAW FIELD CLOUDY    58  55  87 CALM      30.27R
MK VISITOR CEN   N/A     48  43  81 N3          N/A
MAUNA KEA*       N/A     34  28  80 SW21        N/A  WCI  22
MAUNA LOA*       N/A     43  39  87 MISG        N/A
MAUNA LOA 1*   NOT AVBL
PTA KIPUKA*      N/A     70  70 100 NW3         N/A
PTA RANGE 17*    N/A     59  57  94 NW3         N/A
PTA WEST*        N/A     64  63  94 N3          N/A
NENE CABIN*      N/A     55  55 100 E5          N/A
AHUMOA*          N/A     53  51  91 E6          N/A
PTA PORTABLE*  NOT AVBL
PUU MALI*        N/A     55  50  82 S2          N/A
$$

HIC003-080600-
NORTHWEST ISLANDS-

CITY           SKY/WX    TMP DP  RH WIND       PRES   REMARKS
MIDWAY ISLAND  CLOUDY    70  59  68 N8        30.02R
MIDWAY NOS*      N/A     72 N/A N/A MISG      30.00R
FRENCH FRIGATE NOT AVBL
$$

PHZ110>124-180-080600-
BUOY REPORTS

STATION/POSITION TIME  TEMP    WIND        PRES    WAVE   SWELL
                       AIR SEA DIR/SP/G            HT/PER HT/DIR
                 (UTC) (F)     (DEG/KT/KT) (MB)    (FT/S) (FT/D)
BUOY 51001       0430   76 77  200/ 10/ 14 1011.9R
BUOY 51101       0350   77 77  180/ 14/ 17 1012.2    6/15   5/310
BUOY 51100       NOT AVBL
BUOY 51002       0430   79 78   90/ 14/ 16 1011.8R
BUOY 51003       0350   78 80   90/  6/  8 1012.0    6/16   7/310
BUOY 51004       0350   76 79  100/ 16/ 17 1012.7    6/ 8   5/100
BARBERS PT BUOY  NOT AVBL
WAIMEA BAY BUOY  NOT AVBL
KAILUA BAY BUOY  0504      78                N/A     6/11   3/ 10
LANAI BUOY       0445      79                N/A     3/15   2/300
BARBERS PT 2     0509      79                N/A     4/14   3/310
PAUWELA MAUI     0509      78                N/A     5/15   3/330
HILO             0512      78                N/A     6/17   3/340
KANEOHE BAY BUOY 0506      77                N/A     5/10   3/ 20
HANALEI KAUAI    0522      78                N/A     7/14   5/310
KAHULUI HARBOR   0512   77 78   40/  8/ 10 1013.4
HONOLULU HARBOR  0512   78 78   CALM  /  3 1013.9
KILO NALU        NOT AVBL
HILO HARBOR      0512   75 76  190/  4/  5 1013.9
MOKUOLOE         0436   75     280/  1/  2   N/A
NAWILIWILI       0512   75 78   90/  6/  7 1013.2
WHOTS BUOY       NOT AVBL
BUOY 51028       NOT AVBL
$$

......................KEY........................................
  SKY/WX - SKY CONDITIONS/PRESENT WEATHER
  TMP    - TEMPERATURE IN FAHRENHEIT
  DWPT   - DEWPOINT IN FAHRENHEIT
  RH     - RELATIVE HUMIDITY IN PERCENT
  WIND   - DIRECTION AND SPEED /MPH FOR ISLANDS...KTS FOR BUOYS/
  PRES   - MEAN SEA LEVEL PRESSURE IN INCHES OF HG
  VSB    - VISIBILITY IN MILES
  HX     - HEAT INDEX
  WCI    - WIND CHILL INDEX
  VRB    - VARIABLE WIND DIRECTION
  N/A    - NOT AVAILABLE



USA.gov is the U.S. government's official web portal to all federal, state and local government web resources and services.